Time,TemperatureF,DewpointF,PressureIn,WindDirection,WindDirectionDegrees,WindSpeedMPH,WindSpeedGustMPH,Humidity,HourlyPrecipIn,Conditions,Clouds,dailyrainin,SoftwareType,DateUTC
2013-06-30 00:02:00,69.8,58.3,29.74,East,95,0.8,1.8,67,0.00,,,0.00,WUHU216HW,2013-06-30 05:02:00,
2013-06-30 00:07:00,69.7,58.1,29.74,NNE,23,0.9,2.0,67,0.00,,,0.00,WUHU216HW,2013-06-30 05:07:00,
2013-06-30 00:12:00,69.5,58.4,29.74,North,0,2.7,2.7,68,0.00,,,0.00,WUHU216HW,2013-06-30 05:12:00,
2013-06-30 00:17:00,69.3,58.7,29.75,NE,45,1.8,2.7,69,0.00,,,0.00,WUHU216HW,2013-06-30 05:17:00,
2013-06-30 00:22:00,69.1,58.5,29.75,NNW,343,0.8,2.0,69,0.00,,,0.00,WUHU216HW,2013-06-30 05:22:00,
2013-06-30 00:27:00,69.1,58.5,29.75,NNW,338,0.4,2.0,69,0.00,,,0.00,WUHU216HW,2013-06-30 05:27:00,
2013-06-30 00:32:00,68.9,59.1,29.75,NE,45,1.8,2.0,71,0.00,,,0.00,WUHU216HW,2013-06-30 05:32:00,
2013-06-30 00:37:00,68.8,58.6,29.75,SW,225,0.3,1.8,70,0.00,,,0.00,WUHU216HW,2013-06-30 05:37:00,
2013-06-30 00:42:00,68.6,58.9,29.75,NNE,20,1.6,2.9,71,0.00,,,0.00,WUHU216HW,2013-06-30 05:42:00,
2013-06-30 00:47:00,68.6,58.9,29.75,NNW,338,2.5,2.9,71,0.00,,,0.00,WUHU216HW,2013-06-30 05:47:00,
2013-06-30 00:52:00,68.4,59.0,29.75,North,354,0.8,2.5,72,0.00,,,0.00,WUHU216HW,2013-06-30 05:52:00,
2013-06-30 00:57:00,68.2,58.9,29.75,WNW,293,0.9,1.8,72,0.00,,,0.00,WUHU216HW,2013-06-30 05:57:00,
2013-06-30 01:02:00,68.2,59.2,29.75,SSW,203,1.3,1.3,73,0.00,,,0.00,WUHU216HW,2013-06-30 06:02:00,
2013-06-30 01:07:00,68.0,59.5,29.75,NNW,338,2.2,3.4,74,0.00,,,0.00,WUHU216HW,2013-06-30 06:07:00,
2013-06-30 01:13:00,67.9,59.0,29.75,NE,36,1.9,3.4,73,0.00,,,0.00,WUHU216HW,2013-06-30 06:13:00,
2013-06-30 01:18:00,67.7,59.5,29.74,North,0,1.8,2.2,75,0.00,,,0.00,WUHU216HW,2013-06-30 06:18:00,
2013-06-30 01:23:00,67.7,59.1,29.75,North,10,1.2,3.4,74,0.00,,,0.00,WUHU216HW,2013-06-30 06:23:00,
2013-06-30 01:28:00,67.5,59.7,29.75,North,3,1.8,4.0,76,0.00,,,0.00,WUHU216HW,2013-06-30 06:28:00,
2013-06-30 01:33:00,67.3,59.5,29.75,North,0,3.2,5.1,76,0.00,,,0.00,WUHU216HW,2013-06-30 06:33:00,
2013-06-30 01:36:00,67.3,59.1,29.75,North,0,0.6,5.1,75,0.00,,,0.00,WUHU216HW,2013-06-30 06:36:00,
2013-06-30 01:38:00,67.3,59.1,29.75,North,0,1.8,5.1,75,0.00,,,0.00,WUHU216HW,2013-06-30 06:38:00,
2013-06-30 01:39:00,67.3,59.1,29.75,North,351,1.5,5.1,75,0.00,,,0.00,WUHU216HW,2013-06-30 06:39:00,
2013-06-30 01:41:00,67.3,59.1,29.75,North,0,2.1,5.1,75,0.00,,,0.00,WUHU216HW,2013-06-30 06:41:00,
2013-06-30 01:42:00,67.1,59.0,29.75,NNW,338,2.5,3.1,75,0.00,,,0.00,WUHU216HW,2013-06-30 06:42:00,
2013-06-30 01:43:00,67.1,59.3,29.75,NNW,342,1.6,3.1,76,0.00,,,0.00,WUHU216HW,2013-06-30 06:43:00,
2013-06-30 01:45:00,67.1,59.3,29.75,North,4,1.8,3.1,76,0.00,,,0.00,WUHU216HW,2013-06-30 06:45:00,
2013-06-30 01:46:00,67.1,59.3,29.75,NW,315,2.7,3.1,76,0.00,,,0.00,WUHU216HW,2013-06-30 06:46:00,
2013-06-30 01:48:00,67.0,59.1,29.75,NW,321,1.5,3.1,76,0.00,,,0.00,WUHU216HW,2013-06-30 06:48:00,
2013-06-30 01:49:00,67.0,59.5,29.75,NE,45,1.3,3.1,77,0.00,,,0.00,WUHU216HW,2013-06-30 06:49:00,
2013-06-30 01:51:00,67.0,59.1,29.75,North,0,2.9,2.9,76,0.00,,,0.00,WUHU216HW,2013-06-30 06:51:00,
2013-06-30 01:52:00,67.0,59.1,29.75,NNE,21,2.0,2.9,76,0.00,,,0.00,WUHU216HW,2013-06-30 06:52:00,
2013-06-30 01:54:00,66.8,59.0,29.75,North,0,2.5,2.9,76,0.00,,,0.00,WUHU216HW,2013-06-30 06:54:00,
2013-06-30 01:55:00,66.8,59.8,29.75,NW,315,2.5,2.9,78,0.00,,,0.00,WUHU216HW,2013-06-30 06:55:00,
2013-06-30 01:57:00,66.8,59.8,29.75,North,0,1.0,2.9,78,0.00,,,0.00,WUHU216HW,2013-06-30 06:57:00,
2013-06-30 01:58:00,66.6,59.6,29.75,NNW,338,1.8,2.9,78,0.00,,,0.00,WUHU216HW,2013-06-30 06:58:00,
2013-06-30 01:59:00,66.6,59.1,29.75,NE,45,4.0,4.0,77,0.00,,,0.00,WUHU216HW,2013-06-30 06:59:00,
2013-06-30 02:01:00,66.6,59.1,29.75,North,357,0.8,4.0,77,0.00,,,0.00,WUHU216HW,2013-06-30 07:01:00,
2013-06-30 02:02:00,66.6,59.1,29.75,NNW,338,0.9,4.0,77,0.00,,,0.00,WUHU216HW,2013-06-30 07:02:00,
2013-06-30 02:03:00,66.4,59.0,29.75,North,0,1.8,4.0,77,0.00,,,0.00,WUHU216HW,2013-06-30 07:03:00,
2013-06-30 02:04:00,66.6,59.1,29.75,North,0,2.0,4.0,77,0.00,,,0.00,WUHU216HW,2013-06-30 07:04:00,
2013-06-30 02:05:00,66.4,59.0,29.75,North,0,1.5,4.0,77,0.00,,,0.00,WUHU216HW,2013-06-30 07:05:00,
2013-06-30 02:06:00,66.4,59.0,29.75,North,0,1.3,4.0,77,0.00,,,0.00,WUHU216HW,2013-06-30 07:06:00,
2013-06-30 02:07:00,66.4,59.0,29.75,NNW,338,1.8,4.0,77,0.00,,,0.00,WUHU216HW,2013-06-30 07:07:00,
2013-06-30 02:08:00,66.2,58.8,29.75,North,9,1.7,4.0,77,0.00,,,0.00,WUHU216HW,2013-06-30 07:08:00,
2013-06-30 02:09:00,66.2,59.2,29.75,NNE,18,1.4,2.0,78,0.00,,,0.00,WUHU216HW,2013-06-30 07:09:00,
2013-06-30 02:10:00,66.2,58.8,29.75,WNW,293,2.7,2.7,77,0.00,,,0.00,WUHU216HW,2013-06-30 07:10:00,
2013-06-30 02:12:00,66.2,59.2,29.75,NW,307,2.0,2.7,78,0.00,,,0.00,WUHU216HW,2013-06-30 07:12:00,
2013-06-30 02:13:00,66.2,59.2,29.75,NE,45,2.9,2.9,78,0.00,,,0.00,WUHU216HW,2013-06-30 07:13:00,
2013-06-30 02:14:00,66.1,58.6,29.75,NNE,29,2.3,2.9,77,0.00,,,0.00,WUHU216HW,2013-06-30 07:14:00,
2013-06-30 02:15:00,66.2,58.8,29.76,North,0,1.1,2.9,77,0.00,,,0.00,WUHU216HW,2013-06-30 07:15:00,
2013-06-30 02:16:00,66.1,59.4,29.75,East,90,0.9,2.9,79,0.00,,,0.00,WUHU216HW,2013-06-30 07:16:00,
2013-06-30 02:17:00,66.1,59.1,29.75,North,0,1.1,2.9,78,0.00,,,0.00,WUHU216HW,2013-06-30 07:17:00,
2013-06-30 02:18:00,66.1,58.6,29.75,NNE,12,0.8,2.9,77,0.00,,,0.00,WUHU216HW,2013-06-30 07:18:00,
2013-06-30 02:19:00,66.1,59.1,29.75,NE,38,0.3,2.9,78,0.00,,,0.00,WUHU216HW,2013-06-30 07:19:00,
2013-06-30 02:20:00,66.1,59.1,29.75,NW,315,2.2,2.9,78,0.00,,,0.00,WUHU216HW,2013-06-30 07:20:00,
2013-06-30 02:21:00,66.1,59.4,29.75,NW,325,1.5,2.9,79,0.00,,,0.00,WUHU216HW,2013-06-30 07:21:00,
2013-06-30 02:22:00,65.9,58.9,29.75,NNE,16,0.6,2.9,78,0.00,,,0.00,WUHU216HW,2013-06-30 07:22:00,
2013-06-30 02:23:00,65.9,58.9,29.75,North,0,1.6,2.2,78,0.00,,,0.00,WUHU216HW,2013-06-30 07:23:00,
2013-06-30 02:24:00,65.9,58.9,29.75,North,9,1.4,2.2,78,0.00,,,0.00,WUHU216HW,2013-06-30 07:24:00,
2013-06-30 02:25:00,65.9,58.9,29.75,North,0,1.1,2.2,78,0.00,,,0.00,WUHU216HW,2013-06-30 07:25:00,
2013-06-30 02:26:00,65.9,58.9,29.75,North,0,0.9,2.2,78,0.00,,,0.00,WUHU216HW,2013-06-30 07:26:00,
2013-06-30 02:27:00,65.9,58.9,29.75,WNW,293,1.1,2.2,78,0.00,,,0.00,WUHU216HW,2013-06-30 07:27:00,
2013-06-30 02:28:00,65.9,59.2,29.75,North,0,1.1,2.2,79,0.00,,,0.00,WUHU216HW,2013-06-30 07:28:00,
2013-06-30 02:29:00,65.9,58.9,29.75,North,0,1.3,2.2,78,0.00,,,0.00,WUHU216HW,2013-06-30 07:29:00,
2013-06-30 02:30:00,65.9,58.9,29.75,North,0,0.8,1.6,78,0.00,,,0.00,WUHU216HW,2013-06-30 07:30:00,
2013-06-30 02:31:00,65.9,58.9,29.75,North,0,0.4,1.6,78,0.00,,,0.00,WUHU216HW,2013-06-30 07:31:00,
2013-06-30 02:32:00,65.9,58.9,29.75,North,0,1.1,1.6,78,0.00,,,0.00,WUHU216HW,2013-06-30 07:32:00,
2013-06-30 02:33:00,65.9,59.2,29.75,NNW,338,1.1,1.3,79,0.00,,,0.00,WUHU216HW,2013-06-30 07:33:00,
2013-06-30 02:34:00,65.9,59.2,29.75,NNW,343,0.8,1.3,79,0.00,,,0.00,WUHU216HW,2013-06-30 07:34:00,
2013-06-30 02:35:00,65.7,59.1,29.75,North,0,1.8,1.8,79,0.00,,,0.00,WUHU216HW,2013-06-30 07:35:00,
2013-06-30 02:36:00,65.7,58.7,29.75,North,0,1.1,1.8,78,0.00,,,0.00,WUHU216HW,2013-06-30 07:36:00,
2013-06-30 02:37:00,65.7,58.7,29.75,North,0,0.7,1.8,78,0.00,,,0.00,WUHU216HW,2013-06-30 07:37:00,
2013-06-30 02:38:00,65.7,59.4,29.75,NNW,338,0.7,1.8,80,0.00,,,0.00,WUHU216HW,2013-06-30 07:38:00,
2013-06-30 02:39:00,65.7,59.4,29.75,ENE,68,1.8,1.8,80,0.00,,,0.00,WUHU216HW,2013-06-30 07:39:00,
2013-06-30 02:40:00,65.7,59.1,29.75,NE,53,1.3,1.8,79,0.00,,,0.00,WUHU216HW,2013-06-30 07:40:00,
2013-06-30 02:41:00,65.7,59.1,29.75,NNE,12,0.6,1.8,79,0.00,,,0.00,WUHU216HW,2013-06-30 07:41:00,
2013-06-30 02:42:00,65.7,59.1,29.75,North,0,0.7,1.8,79,0.00,,,0.00,WUHU216HW,2013-06-30 07:42:00,
2013-06-30 02:43:00,65.5,58.9,29.75,NNE,23,1.8,1.8,79,0.00,,,0.00,WUHU216HW,2013-06-30 07:43:00,
2013-06-30 02:44:00,65.5,58.9,29.75,NNE,15,1.3,1.8,79,0.00,,,0.00,WUHU216HW,2013-06-30 07:44:00,
2013-06-30 02:45:00,65.5,59.2,29.75,North,4,0.6,1.8,80,0.00,,,0.00,WUHU216HW,2013-06-30 07:45:00,
2013-06-30 02:46:00,65.5,58.9,29.75,North,0,1.8,1.8,79,0.00,,,0.00,WUHU216HW,2013-06-30 07:46:00,
2013-06-30 02:47:00,65.5,58.9,29.75,North,0,1.1,1.8,79,0.00,,,0.00,WUHU216HW,2013-06-30 07:47:00,
2013-06-30 02:48:00,65.5,59.2,29.75,ENE,68,1.1,1.8,80,0.00,,,0.00,WUHU216HW,2013-06-30 07:48:00,
2013-06-30 02:49:00,65.5,59.2,29.75,NE,50,0.9,1.8,80,0.00,,,0.00,WUHU216HW,2013-06-30 07:49:00,
2013-06-30 02:50:00,65.5,58.9,29.75,North,0,2.7,2.7,79,0.00,,,0.00,WUHU216HW,2013-06-30 07:50:00,
2013-06-30 02:51:00,65.5,59.2,29.75,North,0,1.8,2.7,80,0.00,,,0.00,WUHU216HW,2013-06-30 07:51:00,
2013-06-30 02:52:00,65.5,58.9,29.75,North,0,2.9,2.9,79,0.00,,,0.00,WUHU216HW,2013-06-30 07:52:00,
2013-06-30 02:53:00,65.5,58.9,29.75,North,8,2.3,2.9,79,0.00,,,0.00,WUHU216HW,2013-06-30 07:53:00,
2013-06-30 02:54:00,65.5,58.9,29.75,North,0,3.4,3.4,79,0.00,,,0.00,WUHU216HW,2013-06-30 07:54:00,
2013-06-30 02:55:00,65.5,59.2,29.75,North,5,2.3,3.4,80,0.00,,,0.00,WUHU216HW,2013-06-30 07:55:00,
2013-06-30 02:56:00,65.5,59.2,29.75,NNE,17,0.8,3.4,80,0.00,,,0.00,WUHU216HW,2013-06-30 07:56:00,
2013-06-30 02:57:00,65.3,59.0,29.75,NNE,23,1.8,3.4,80,0.00,,,0.00,WUHU216HW,2013-06-30 07:57:00,
2013-06-30 02:58:00,65.3,59.0,29.75,North,0,2.0,3.4,80,0.00,,,0.00,WUHU216HW,2013-06-30 07:58:00,
2013-06-30 02:59:00,65.3,59.0,29.75,NNW,338,4.7,4.7,80,0.00,,,0.00,WUHU216HW,2013-06-30 07:59:00,
2013-06-30 03:00:00,65.3,59.0,29.75,North,0,1.6,4.7,80,0.00,,,0.00,WUHU216HW,2013-06-30 08:00:00,
2013-06-30 03:01:00,65.3,59.0,29.75,North,0,4.0,4.7,80,0.00,,,0.00,WUHU216HW,2013-06-30 08:01:00,
2013-06-30 03:02:00,65.3,59.0,29.75,North,0,2.2,4.7,80,0.00,,,0.00,WUHU216HW,2013-06-30 08:02:00,
2013-06-30 03:04:00,65.2,58.9,29.75,North,0,2.0,4.7,80,0.00,,,0.00,WUHU216HW,2013-06-30 08:04:00,
2013-06-30 03:05:00,65.2,58.9,29.75,South,180,3.4,4.7,80,0.00,,,0.00,WUHU216HW,2013-06-30 08:05:00,
2013-06-30 03:06:00,65.3,59.4,29.75,SSE,163,2.3,4.7,81,0.00,,,0.00,WUHU216HW,2013-06-30 08:06:00,
2013-06-30 03:07:00,65.2,59.2,29.75,NNW,338,1.6,4.7,81,0.00,,,0.00,WUHU216HW,2013-06-30 08:07:00,
2013-06-30 03:08:00,65.2,58.9,29.75,NNW,346,1.3,4.7,80,0.00,,,0.00,WUHU216HW,2013-06-30 08:08:00,
2013-06-30 03:09:00,65.2,58.9,29.75,North,0,1.8,4.7,80,0.00,,,0.00,WUHU216HW,2013-06-30 08:09:00,
2013-06-30 03:10:00,65.2,58.9,29.75,North,0,1.1,4.0,80,0.00,,,0.00,WUHU216HW,2013-06-30 08:10:00,
2013-06-30 03:11:00,65.2,58.9,29.75,North,0,0.7,4.0,80,0.00,,,0.00,WUHU216HW,2013-06-30 08:11:00,
2013-06-30 03:12:00,65.2,58.9,29.75,North,0,1.1,3.4,80,0.00,,,0.00,WUHU216HW,2013-06-30 08:12:00,
2013-06-30 03:13:00,65.2,59.2,29.75,NNE,23,1.6,3.4,81,0.00,,,0.00,WUHU216HW,2013-06-30 08:13:00,
2013-06-30 03:14:00,65.2,58.9,29.75,NNE,23,1.8,3.4,80,0.00,,,0.00,WUHU216HW,2013-06-30 08:14:00,
2013-06-30 03:15:00,65.2,59.2,29.75,NNE,13,1.5,1.8,81,0.00,,,0.00,WUHU216HW,2013-06-30 08:15:00,
2013-06-30 03:16:00,65.2,59.5,29.75,North,350,1.2,1.8,82,0.00,,,0.00,WUHU216HW,2013-06-30 08:16:00,
2013-06-30 03:17:00,65.2,59.2,29.75,North,0,2.5,2.5,81,0.00,,,0.00,WUHU216HW,2013-06-30 08:17:00,
2013-06-30 03:18:00,65.2,59.2,29.75,North,0,1.7,2.5,81,0.00,,,0.00,WUHU216HW,2013-06-30 08:18:00,
2013-06-30 03:19:00,65.2,58.9,29.75,NNE,23,1.3,2.5,80,0.00,,,0.00,WUHU216HW,2013-06-30 08:19:00,
2013-06-30 03:20:00,65.2,59.2,29.75,NNE,23,1.0,2.5,81,0.00,,,0.00,WUHU216HW,2013-06-30 08:20:00,
2013-06-30 03:21:00,65.2,59.2,29.75,North,0,1.6,2.5,81,0.00,,,0.00,WUHU216HW,2013-06-30 08:21:00,
2013-06-30 03:22:00,65.2,59.2,29.75,North,351,1.4,2.5,81,0.00,,,0.00,WUHU216HW,2013-06-30 08:22:00,
2013-06-30 03:23:00,65.0,59.1,29.75,SSW,203,3.4,3.4,81,0.00,,,0.00,WUHU216HW,2013-06-30 08:23:00,
2013-06-30 03:24:00,65.2,59.5,29.75,South,185,2.3,3.4,82,0.00,,,0.00,WUHU216HW,2013-06-30 08:24:00,
2013-06-30 03:25:00,65.0,59.3,29.75,NNE,23,3.4,3.4,82,0.00,,,0.00,WUHU216HW,2013-06-30 08:25:00,
2013-06-30 03:26:00,65.0,59.3,29.75,NNE,16,2.3,3.4,82,0.00,,,0.00,WUHU216HW,2013-06-30 08:26:00,
2013-06-30 03:27:00,65.0,59.1,29.75,North,0,0.8,3.4,81,0.00,,,0.00,WUHU216HW,2013-06-30 08:27:00,
2013-06-30 03:28:00,65.0,59.1,29.75,NNW,338,0.4,3.4,81,0.00,,,0.00,WUHU216HW,2013-06-30 08:28:00,
2013-06-30 03:29:00,65.0,59.1,29.75,East,90,1.6,3.4,81,0.00,,,0.00,WUHU216HW,2013-06-30 08:29:00,
2013-06-30 03:30:00,65.0,59.3,29.75,North,0,2.7,3.4,82,0.00,,,0.00,WUHU216HW,2013-06-30 08:30:00,
2013-06-30 03:32:00,64.8,58.9,29.75,NNW,346,1.6,3.4,81,0.00,,,0.00,WUHU216HW,2013-06-30 08:32:00,
2013-06-30 03:33:00,64.8,59.2,29.75,North,0,1.1,3.4,82,0.00,,,0.00,WUHU216HW,2013-06-30 08:33:00,
2013-06-30 03:34:00,64.8,59.2,29.75,NW,315,1.1,3.4,82,0.00,,,0.00,WUHU216HW,2013-06-30 08:34:00,
2013-06-30 03:35:00,64.8,59.2,29.75,NW,324,0.9,2.7,82,0.00,,,0.00,WUHU216HW,2013-06-30 08:35:00,
2013-06-30 03:36:00,64.8,59.2,29.75,North,0,2.9,2.9,82,0.00,,,0.00,WUHU216HW,2013-06-30 08:36:00,
2013-06-30 03:37:00,64.8,59.2,29.75,North,0,1.7,2.9,82,0.00,,,0.00,WUHU216HW,2013-06-30 08:37:00,
2013-06-30 03:38:00,64.8,58.9,29.75,North,0,0.3,2.9,81,0.00,,,0.00,WUHU216HW,2013-06-30 08:38:00,
2013-06-30 03:39:00,64.8,59.2,29.75,NNW,338,0.2,2.9,82,0.00,,,0.00,WUHU216HW,2013-06-30 08:39:00,
2013-06-30 03:40:00,64.8,58.9,29.75,North,0,1.3,2.9,81,0.00,,,0.00,WUHU216HW,2013-06-30 08:40:00,
2013-06-30 03:41:00,64.8,59.2,29.75,NW,315,2.9,2.9,82,0.00,,,0.00,WUHU216HW,2013-06-30 08:41:00,
2013-06-30 03:43:00,64.6,58.7,29.75,NW,315,2.9,2.9,81,0.00,,,0.00,WUHU216HW,2013-06-30 08:43:00,
2013-06-30 03:44:00,64.6,59.1,29.75,NW,318,1.7,2.9,82,0.00,,,0.00,WUHU216HW,2013-06-30 08:44:00,
2013-06-30 03:45:00,64.6,59.1,29.75,North,0,0.7,2.9,82,0.00,,,0.00,WUHU216HW,2013-06-30 08:45:00,
2013-06-30 03:46:00,64.6,58.7,29.75,North,0,1.8,2.9,81,0.00,,,0.00,WUHU216HW,2013-06-30 08:46:00,
2013-06-30 03:47:00,64.6,59.1,29.75,NNE,23,2.5,2.9,82,0.00,,,0.00,WUHU216HW,2013-06-30 08:47:00,
2013-06-30 03:48:00,64.6,59.1,29.75,NNE,19,1.5,2.9,82,0.00,,,0.00,WUHU216HW,2013-06-30 08:48:00,
2013-06-30 03:49:00,64.6,58.7,29.75,North,0,0.7,2.9,81,0.00,,,0.00,WUHU216HW,2013-06-30 08:49:00,
2013-06-30 03:50:00,64.6,59.1,29.75,North,0,1.1,2.9,82,0.00,,,0.00,WUHU216HW,2013-06-30 08:50:00,
2013-06-30 03:51:00,64.6,59.1,29.75,North,0,1.8,2.9,82,0.00,,,0.00,WUHU216HW,2013-06-30 08:51:00,
2013-06-30 03:52:00,64.6,59.1,29.75,North,353,1.3,2.9,82,0.00,,,0.00,WUHU216HW,2013-06-30 08:52:00,
2013-06-30 03:53:00,64.6,59.1,29.75,North,0,1.3,2.5,82,0.00,,,0.00,WUHU216HW,2013-06-30 08:53:00,
2013-06-30 03:54:00,64.6,59.1,29.75,North,0,0.8,2.5,82,0.00,,,0.00,WUHU216HW,2013-06-30 08:54:00,
2013-06-30 03:55:00,64.6,59.1,29.75,North,0,1.6,2.5,82,0.00,,,0.00,WUHU216HW,2013-06-30 08:55:00,
2013-06-30 03:56:00,64.6,59.1,29.75,North,0,1.8,2.5,82,0.00,,,0.00,WUHU216HW,2013-06-30 08:56:00,
2013-06-30 03:57:00,64.6,59.1,29.75,NNE,31,1.5,1.8,82,0.00,,,0.00,WUHU216HW,2013-06-30 08:57:00,
2013-06-30 03:58:00,64.4,58.9,29.75,ENE,60,1.0,1.8,82,0.00,,,0.00,WUHU216HW,2013-06-30 08:58:00,
2013-06-30 03:59:00,64.4,58.9,29.75,NNE,23,0.6,1.8,82,0.00,,,0.00,WUHU216HW,2013-06-30 08:59:00,
2013-06-30 04:01:00,64.4,58.9,29.75,NNW,338,0.9,1.8,82,0.00,,,0.00,WUHU216HW,2013-06-30 09:01:00,
2013-06-30 04:02:00,64.4,58.9,29.75,North,0,1.8,1.8,82,0.00,,,0.00,WUHU216HW,2013-06-30 09:02:00,
2013-06-30 04:03:00,64.4,58.9,29.75,NNE,23,1.8,1.8,82,0.00,,,0.00,WUHU216HW,2013-06-30 09:03:00,
2013-06-30 04:04:00,64.4,58.9,29.75,NNE,15,1.3,1.8,82,0.00,,,0.00,WUHU216HW,2013-06-30 09:04:00,
2013-06-30 04:05:00,64.4,58.9,29.75,North,356,0.6,1.8,82,0.00,,,0.00,WUHU216HW,2013-06-30 09:05:00,
2013-06-30 04:06:00,64.4,58.9,29.75,North,0,1.1,1.8,82,0.00,,,0.00,WUHU216HW,2013-06-30 09:06:00,
2013-06-30 04:07:00,64.4,58.9,29.75,North,0,0.8,1.8,82,0.00,,,0.00,WUHU216HW,2013-06-30 09:07:00,
2013-06-30 04:08:00,64.4,58.9,29.75,WNW,293,1.8,1.8,82,0.00,,,0.00,WUHU216HW,2013-06-30 09:08:00,
2013-06-30 04:09:00,64.4,58.9,29.75,NW,305,1.3,1.8,82,0.00,,,0.00,WUHU216HW,2013-06-30 09:09:00,
2013-06-30 04:10:00,64.4,58.9,29.75,North,0,1.1,1.8,82,0.00,,,0.00,WUHU216HW,2013-06-30 09:10:00,
2013-06-30 04:11:00,64.4,58.9,29.75,North,0,2.5,2.5,82,0.00,,,0.00,WUHU216HW,2013-06-30 09:11:00,
2013-06-30 04:12:00,64.4,58.9,29.75,North,353,1.8,2.5,82,0.00,,,0.00,WUHU216HW,2013-06-30 09:12:00,
2013-06-30 04:13:00,64.4,58.9,29.75,North,0,1.3,2.5,82,0.00,,,0.00,WUHU216HW,2013-06-30 09:13:00,
2013-06-30 04:14:00,64.4,58.9,29.75,North,0,1.6,2.5,82,0.00,,,0.00,WUHU216HW,2013-06-30 09:14:00,
2013-06-30 04:15:00,64.3,58.7,29.74,North,0,1.0,2.5,82,0.00,,,0.00,WUHU216HW,2013-06-30 09:15:00,
2013-06-30 04:16:00,64.4,58.9,29.74,North,0,1.1,2.5,82,0.00,,,0.00,WUHU216HW,2013-06-30 09:16:00,
2013-06-30 04:17:00,64.3,58.7,29.75,North,0,1.8,2.5,82,0.00,,,0.00,WUHU216HW,2013-06-30 09:17:00,
2013-06-30 04:18:00,64.3,58.7,29.75,NE,45,2.9,2.9,82,0.00,,,0.00,WUHU216HW,2013-06-30 09:18:00,
2013-06-30 04:19:00,64.3,59.0,29.75,NNE,22,2.3,2.9,83,0.00,,,0.00,WUHU216HW,2013-06-30 09:19:00,
2013-06-30 04:20:00,64.3,58.7,29.75,NNW,346,1.3,2.9,82,0.00,,,0.00,WUHU216HW,2013-06-30 09:20:00,
2013-06-30 04:21:00,64.3,58.7,29.75,North,0,1.6,2.9,82,0.00,,,0.00,WUHU216HW,2013-06-30 09:21:00,
2013-06-30 04:22:00,64.3,58.7,29.75,North,0,1.6,2.9,82,0.00,,,0.00,WUHU216HW,2013-06-30 09:22:00,
2013-06-30 04:23:00,64.3,59.0,29.75,ENE,68,2.2,2.9,83,0.00,,,0.00,WUHU216HW,2013-06-30 09:23:00,
2013-06-30 04:24:00,64.1,58.8,29.75,NE,53,1.7,2.9,83,0.00,,,0.00,WUHU216HW,2013-06-30 09:24:00,
2013-06-30 04:26:00,64.1,58.8,29.75,NNE,23,1.8,2.9,83,0.00,,,0.00,WUHU216HW,2013-06-30 09:26:00,
2013-06-30 04:27:00,64.1,58.5,29.75,North,0,3.6,3.6,82,0.00,,,0.00,WUHU216HW,2013-06-30 09:27:00,
2013-06-30 04:28:00,64.1,58.8,29.75,North,355,2.3,3.6,83,0.00,,,0.00,WUHU216HW,2013-06-30 09:28:00,
2013-06-30 04:29:00,64.1,58.8,29.75,NNW,343,0.8,3.6,83,0.00,,,0.00,WUHU216HW,2013-06-30 09:29:00,
2013-06-30 04:30:00,64.1,58.8,29.75,North,0,0.9,3.6,83,0.00,,,0.00,WUHU216HW,2013-06-30 09:30:00,
2013-06-30 04:31:00,64.1,58.8,29.75,North,0,1.1,3.6,83,0.00,,,0.00,WUHU216HW,2013-06-30 09:31:00,
2013-06-30 04:32:00,64.1,58.8,29.75,East,90,1.1,3.6,83,0.00,,,0.00,WUHU216HW,2013-06-30 09:32:00,
2013-06-30 04:33:00,63.9,58.6,29.75,ENE,70,0.8,3.6,83,0.00,,,0.00,WUHU216HW,2013-06-30 09:33:00,
2013-06-30 04:34:00,64.1,58.8,29.75,North,353,0.3,3.6,83,0.00,,,0.00,WUHU216HW,2013-06-30 09:34:00,
2013-06-30 04:35:00,63.9,59.0,29.75,North,0,2.5,3.6,84,0.00,,,0.00,WUHU216HW,2013-06-30 09:35:00,
2013-06-30 04:36:00,63.9,58.6,29.75,North,0,2.3,3.6,83,0.00,,,0.00,WUHU216HW,2013-06-30 09:36:00,
2013-06-30 04:37:00,63.9,58.6,29.75,North,8,1.5,2.5,83,0.00,,,0.00,WUHU216HW,2013-06-30 09:37:00,
2013-06-30 04:39:00,63.9,58.6,29.75,NNE,23,1.3,2.5,83,0.00,,,0.00,WUHU216HW,2013-06-30 09:39:00,
2013-06-30 04:40:00,63.9,58.6,29.75,WNW,293,1.6,2.5,83,0.00,,,0.00,WUHU216HW,2013-06-30 09:40:00,
2013-06-30 04:41:00,63.9,58.6,29.75,NW,319,1.4,2.5,83,0.00,,,0.00,WUHU216HW,2013-06-30 09:41:00,
2013-06-30 04:42:00,63.9,58.6,29.75,North,0,1.3,2.5,83,0.00,,,0.00,WUHU216HW,2013-06-30 09:42:00,
2013-06-30 04:43:00,63.7,58.8,29.75,North,0,0.8,2.5,84,0.00,,,0.00,WUHU216HW,2013-06-30 09:43:00,
2013-06-30 04:44:00,63.7,58.4,29.75,WNW,293,1.6,2.5,83,0.00,,,0.00,WUHU216HW,2013-06-30 09:44:00,
2013-06-30 04:45:00,63.7,58.4,29.75,NW,308,1.3,2.0,83,0.00,,,0.00,WUHU216HW,2013-06-30 09:45:00,
2013-06-30 04:46:00,63.7,58.4,29.75,NNW,338,0.6,1.6,83,0.00,,,0.00,WUHU216HW,2013-06-30 09:46:00,
2013-06-30 04:47:00,63.7,58.4,29.75,North,0,0.4,1.6,83,0.00,,,0.00,WUHU216HW,2013-06-30 09:47:00,
2013-06-30 04:48:00,63.7,58.4,29.75,NNW,338,0.7,1.6,83,0.00,,,0.00,WUHU216HW,2013-06-30 09:48:00,
2013-06-30 04:49:00,63.7,58.4,29.75,NNW,346,0.6,1.6,83,0.00,,,0.00,WUHU216HW,2013-06-30 09:49:00,
2013-06-30 04:50:00,63.7,58.4,29.75,NW,315,1.1,1.6,83,0.00,,,0.00,WUHU216HW,2013-06-30 09:50:00,
2013-06-30 04:51:00,63.7,58.4,29.75,NNE,23,1.1,1.6,83,0.00,,,0.00,WUHU216HW,2013-06-30 09:51:00,
2013-06-30 04:52:00,63.7,58.4,29.75,NNE,23,1.1,1.6,83,0.00,,,0.00,WUHU216HW,2013-06-30 09:52:00,
2013-06-30 04:53:00,63.7,58.4,29.75,North,0,1.1,1.6,83,0.00,,,0.00,WUHU216HW,2013-06-30 09:53:00,
2013-06-30 04:54:00,63.7,58.4,29.75,NNW,338,2.5,2.5,83,0.00,,,0.00,WUHU216HW,2013-06-30 09:54:00,
2013-06-30 04:56:00,63.7,58.4,29.75,West,270,1.8,2.5,83,0.00,,,0.00,WUHU216HW,2013-06-30 09:56:00,
2013-06-30 04:57:00,63.7,58.4,29.76,WNW,301,1.5,2.5,83,0.00,,,0.00,WUHU216HW,2013-06-30 09:57:00,
2013-06-30 04:58:00,63.7,58.4,29.75,North,0,1.1,2.5,83,0.00,,,0.00,WUHU216HW,2013-06-30 09:58:00,
2013-06-30 04:59:00,63.7,58.4,29.76,ESE,113,2.2,2.5,83,0.00,,,0.00,WUHU216HW,2013-06-30 09:59:00,
2013-06-30 05:00:00,63.5,58.2,29.76,NW,315,2.5,2.5,83,0.00,,,0.00,WUHU216HW,2013-06-30 10:00:00,
2013-06-30 05:01:00,63.5,58.6,29.76,NNW,334,2.2,2.5,84,0.00,,,0.00,WUHU216HW,2013-06-30 10:01:00,
2013-06-30 05:02:00,63.5,58.2,29.76,North,351,1.5,2.5,83,0.00,,,0.00,WUHU216HW,2013-06-30 10:02:00,
2013-06-30 05:03:00,63.5,58.6,29.76,NNW,338,1.8,2.5,84,0.00,,,0.00,WUHU216HW,2013-06-30 10:03:00,
2013-06-30 05:04:00,63.5,58.2,29.76,West,270,2.5,2.5,83,0.00,,,0.00,WUHU216HW,2013-06-30 10:04:00,
2013-06-30 05:06:00,63.5,58.6,29.76,North,0,1.8,2.5,84,0.00,,,0.00,WUHU216HW,2013-06-30 10:06:00,
2013-06-30 05:07:00,63.5,58.6,29.76,North,356,1.1,2.5,84,0.00,,,0.00,WUHU216HW,2013-06-30 10:07:00,
2013-06-30 05:08:00,63.5,58.6,29.76,North,0,0.9,2.5,84,0.00,,,0.00,WUHU216HW,2013-06-30 10:08:00,
2013-06-30 05:10:00,63.5,58.6,29.76,NNW,338,2.5,2.5,84,0.00,,,0.00,WUHU216HW,2013-06-30 10:10:00,
2013-06-30 05:11:00,63.4,58.4,29.76,NNE,23,1.8,2.5,84,0.00,,,0.00,WUHU216HW,2013-06-30 10:11:00,
2013-06-30 05:12:00,63.4,58.8,29.76,North,0,1.8,2.5,85,0.00,,,0.00,WUHU216HW,2013-06-30 10:12:00,
2013-06-30 05:14:00,63.4,58.4,29.76,North,0,1.5,2.5,84,0.00,,,0.00,WUHU216HW,2013-06-30 10:14:00,
2013-06-30 05:16:00,63.4,58.4,29.76,North,0,1.1,2.5,84,0.00,,,0.00,WUHU216HW,2013-06-30 10:16:00,
2013-06-30 05:17:00,63.4,59.1,29.77,NNW,345,0.3,2.5,86,0.00,,,0.00,WUHU216HW,2013-06-30 10:17:00,
2013-06-30 05:19:00,63.4,58.4,29.76,ENE,68,2.0,2.5,84,0.00,,,0.00,WUHU216HW,2013-06-30 10:19:00,
2013-06-30 05:21:00,63.4,58.4,29.77,NNW,338,1.8,2.0,84,0.00,,,0.00,WUHU216HW,2013-06-30 10:21:00,
2013-06-30 05:22:00,63.4,58.8,29.76,NW,319,1.5,2.0,85,0.00,,,0.00,WUHU216HW,2013-06-30 10:22:00,
2013-06-30 05:23:00,63.4,58.8,29.77,NW,310,0.8,2.0,85,0.00,,,0.00,WUHU216HW,2013-06-30 10:23:00,
2013-06-30 05:24:00,63.4,58.8,29.77,North,0,0.4,2.0,85,0.00,,,0.00,WUHU216HW,2013-06-30 10:24:00,
2013-06-30 05:25:00,63.4,58.8,29.77,NE,45,0.9,2.0,85,0.00,,,0.00,WUHU216HW,2013-06-30 10:25:00,
2013-06-30 05:26:00,63.4,58.8,29.76,North,0,1.6,2.0,85,0.00,,,0.00,WUHU216HW,2013-06-30 10:26:00,
2013-06-30 05:27:00,63.4,58.8,29.77,North,0,2.5,2.5,85,0.00,,,0.00,WUHU216HW,2013-06-30 10:27:00,
2013-06-30 05:28:00,63.4,58.8,29.77,North,0,1.9,2.5,85,0.00,,,0.00,WUHU216HW,2013-06-30 10:28:00,
2013-06-30 05:29:00,63.4,58.8,29.77,North,0,1.2,2.5,85,0.00,,,0.00,WUHU216HW,2013-06-30 10:29:00,
2013-06-30 05:31:00,63.4,58.4,29.77,North,0,2.5,2.5,84,0.00,,,0.00,WUHU216HW,2013-06-30 10:31:00,
2013-06-30 05:32:00,63.4,58.8,29.77,NNW,344,1.8,2.5,85,0.00,,,0.00,WUHU216HW,2013-06-30 10:32:00,
2013-06-30 05:33:00,63.4,58.8,29.77,North,0,1.1,2.5,85,0.00,,,0.00,WUHU216HW,2013-06-30 10:33:00,
2013-06-30 05:34:00,63.2,58.6,29.77,North,0,1.8,2.5,85,0.00,,,0.00,WUHU216HW,2013-06-30 10:34:00,
2013-06-30 05:35:00,63.2,58.6,29.77,North,0,1.5,2.5,85,0.00,,,0.00,WUHU216HW,2013-06-30 10:35:00,
2013-06-30 05:36:00,63.2,58.6,29.77,North,0,0.9,2.5,85,0.00,,,0.00,WUHU216HW,2013-06-30 10:36:00,
2013-06-30 05:37:00,63.2,58.6,29.77,NNW,338,0.9,2.5,85,0.00,,,0.00,WUHU216HW,2013-06-30 10:37:00,
2013-06-30 05:38:00,63.2,58.6,29.77,NNW,344,0.6,2.5,85,0.00,,,0.00,WUHU216HW,2013-06-30 10:38:00,
2013-06-30 05:39:00,63.2,58.2,29.77,ENE,68,0.9,2.5,84,0.00,,,0.00,WUHU216HW,2013-06-30 10:39:00,
2013-06-30 05:40:00,63.2,58.6,29.78,NE,45,2.5,2.5,85,0.00,,,0.00,WUHU216HW,2013-06-30 10:40:00,
2013-06-30 05:41:00,63.2,59.0,29.78,NE,45,4.0,4.0,86,0.00,,,0.00,WUHU216HW,2013-06-30 10:41:00,
2013-06-30 05:42:00,63.2,58.6,29.78,NNE,24,3.7,4.0,85,0.00,,,0.00,WUHU216HW,2013-06-30 10:42:00,
2013-06-30 05:43:00,63.2,58.6,29.78,North,0,2.3,4.0,85,0.00,,,0.00,WUHU216HW,2013-06-30 10:43:00,
2013-06-30 05:44:00,63.2,58.6,29.78,North,0,2.5,4.0,85,0.00,,,0.00,WUHU216HW,2013-06-30 10:44:00,
2013-06-30 05:45:00,63.0,58.4,29.78,North,0,1.7,4.0,85,0.00,,,0.00,WUHU216HW,2013-06-30 10:45:00,
2013-06-30 05:46:00,63.0,58.4,29.77,NNE,13,0.6,4.0,85,0.00,,,0.00,WUHU216HW,2013-06-30 10:46:00,
2013-06-30 05:47:00,63.0,58.4,29.78,NNE,23,1.3,4.0,85,0.00,,,0.00,WUHU216HW,2013-06-30 10:47:00,
2013-06-30 05:49:00,63.0,58.4,29.78,NNW,346,1.5,4.0,85,0.00,,,0.00,WUHU216HW,2013-06-30 10:49:00,
2013-06-30 05:50:00,63.0,58.4,29.78,North,0,1.8,4.0,85,0.00,,,0.00,WUHU216HW,2013-06-30 10:50:00,
2013-06-30 05:51:00,63.0,58.4,29.78,North,0,2.2,3.4,85,0.00,,,0.00,WUHU216HW,2013-06-30 10:51:00,
2013-06-30 05:52:00,63.0,58.8,29.78,North,352,1.8,2.5,86,0.00,,,0.00,WUHU216HW,2013-06-30 10:52:00,
2013-06-30 05:53:00,63.0,59.1,29.78,North,0,2.2,2.5,87,0.00,,,0.00,WUHU216HW,2013-06-30 10:53:00,
2013-06-30 05:54:00,63.0,58.8,29.78,North,355,1.5,2.2,86,0.00,,,0.00,WUHU216HW,2013-06-30 10:54:00,
2013-06-30 05:55:00,63.0,58.8,29.78,NNW,346,0.6,2.2,86,0.00,,,0.00,WUHU216HW,2013-06-30 10:55:00,
2013-06-30 05:56:00,63.0,58.8,29.78,North,0,1.1,2.2,86,0.00,,,0.00,WUHU216HW,2013-06-30 10:56:00,
2013-06-30 05:57:00,63.0,58.4,29.78,North,6,0.8,2.2,85,0.00,,,0.00,WUHU216HW,2013-06-30 10:57:00,
2013-06-30 05:58:00,63.0,58.4,29.78,ENE,68,1.6,2.2,85,0.00,,,0.00,WUHU216HW,2013-06-30 10:58:00,
2013-06-30 05:59:00,63.0,58.4,29.78,NE,45,4.0,4.0,85,0.00,,,0.00,WUHU216HW,2013-06-30 10:59:00,
2013-06-30 06:00:00,63.0,58.8,29.78,North,352,0.6,4.0,86,0.00,,,0.00,WUHU216HW,2013-06-30 11:00:00,
2013-06-30 06:01:00,63.0,58.4,29.78,NNE,23,0.7,4.0,85,0.00,,,0.00,WUHU216HW,2013-06-30 11:01:00,
2013-06-30 06:02:00,63.0,58.4,29.78,ESE,113,0.9,4.0,85,0.00,,,0.00,WUHU216HW,2013-06-30 11:02:00,
2013-06-30 06:03:00,63.0,58.4,29.78,East,96,0.6,4.0,85,0.00,,,0.00,WUHU216HW,2013-06-30 11:03:00,
2013-06-30 06:04:00,63.0,58.8,29.78,NNW,338,0.4,4.0,86,0.00,,,0.00,WUHU216HW,2013-06-30 11:04:00,
2013-06-30 06:05:00,63.0,58.8,29.78,North,359,0.3,4.0,86,0.00,,,0.00,WUHU216HW,2013-06-30 11:05:00,
2013-06-30 06:06:00,63.0,58.8,29.78,NNE,23,1.8,4.0,86,0.00,,,0.00,WUHU216HW,2013-06-30 11:06:00,
2013-06-30 06:07:00,63.0,58.8,29.78,NNE,23,1.5,4.0,86,0.00,,,0.00,WUHU216HW,2013-06-30 11:07:00,
2013-06-30 06:08:00,63.0,58.8,29.78,North,0,1.1,1.8,86,0.00,,,0.00,WUHU216HW,2013-06-30 11:08:00,
2013-06-30 06:10:00,63.0,58.8,29.78,North,0,0.8,1.8,86,0.00,,,0.00,WUHU216HW,2013-06-30 11:10:00,
2013-06-30 06:11:00,63.0,58.8,29.78,North,0,0.7,1.8,86,0.00,,,0.00,WUHU216HW,2013-06-30 11:11:00,
2013-06-30 06:12:00,63.0,58.8,29.78,North,0,1.1,1.8,86,0.00,,,0.00,WUHU216HW,2013-06-30 11:12:00,
2013-06-30 06:13:00,63.0,58.8,29.78,NW,315,2.0,2.0,86,0.00,,,0.00,WUHU216HW,2013-06-30 11:13:00,
2013-06-30 06:14:00,63.0,58.8,29.78,NNW,329,1.5,2.0,86,0.00,,,0.00,WUHU216HW,2013-06-30 11:14:00,
2013-06-30 06:15:00,63.0,58.8,29.78,North,4,0.6,2.0,86,0.00,,,0.00,WUHU216HW,2013-06-30 11:15:00,
2013-06-30 06:16:00,63.0,58.4,29.78,NNE,23,0.1,2.0,85,0.00,,,0.00,WUHU216HW,2013-06-30 11:16:00,
2013-06-30 06:17:00,63.0,58.4,29.78,North,0,1.8,2.0,85,0.00,,,0.00,WUHU216HW,2013-06-30 11:17:00,
2013-06-30 06:19:00,63.0,58.4,29.78,North,0,0.9,2.0,85,0.00,,,0.00,WUHU216HW,2013-06-30 11:19:00,
2013-06-30 06:20:00,63.0,58.4,29.78,NNE,23,0.4,2.0,85,0.00,,,0.00,WUHU216HW,2013-06-30 11:20:00,
2013-06-30 06:21:00,63.0,58.4,29.78,NNE,23,0.4,2.0,85,0.00,,,0.00,WUHU216HW,2013-06-30 11:21:00,
2013-06-30 06:22:00,63.0,58.8,29.79,North,0,0.4,2.0,86,0.00,,,0.00,WUHU216HW,2013-06-30 11:22:00,
2013-06-30 06:23:00,63.0,58.8,29.79,NNE,23,2.0,2.0,86,0.00,,,0.00,WUHU216HW,2013-06-30 11:23:00,
2013-06-30 06:24:00,63.0,58.4,29.79,NNE,17,1.4,2.0,85,0.00,,,0.00,WUHU216HW,2013-06-30 11:24:00,
2013-06-30 06:25:00,63.0,58.4,29.78,NNW,338,0.7,2.0,85,0.00,,,0.00,WUHU216HW,2013-06-30 11:25:00,
2013-06-30 06:26:00,63.0,58.4,29.78,North,0,2.0,2.0,85,0.00,,,0.00,WUHU216HW,2013-06-30 11:26:00,
2013-06-30 06:27:00,63.0,58.4,29.78,North,0,1.1,2.0,85,0.00,,,0.00,WUHU216HW,2013-06-30 11:27:00,
2013-06-30 06:28:00,63.0,58.4,29.79,North,0,0.4,2.0,85,0.00,,,0.00,WUHU216HW,2013-06-30 11:28:00,
2013-06-30 06:29:00,63.0,58.4,29.79,NNE,23,0.9,2.0,85,0.00,,,0.00,WUHU216HW,2013-06-30 11:29:00,
2013-06-30 06:30:00,63.0,58.4,29.78,NNW,338,0.9,2.0,85,0.00,,,0.00,WUHU216HW,2013-06-30 11:30:00,
2013-06-30 06:31:00,63.0,58.4,29.79,NNW,338,0.6,2.0,85,0.00,,,0.00,WUHU216HW,2013-06-30 11:31:00,
2013-06-30 06:32:00,63.0,58.4,29.79,North,0,0.9,2.0,85,0.00,,,0.00,WUHU216HW,2013-06-30 11:32:00,
2013-06-30 06:33:00,63.0,58.4,29.79,North,0,0.8,2.0,85,0.00,,,0.00,WUHU216HW,2013-06-30 11:33:00,
2013-06-30 06:34:00,63.0,58.4,29.79,North,0,0.7,2.0,85,0.00,,,0.00,WUHU216HW,2013-06-30 11:34:00,
2013-06-30 06:35:00,63.0,58.4,29.79,North,0,0.4,2.0,85,0.00,,,0.00,WUHU216HW,2013-06-30 11:35:00,
2013-06-30 06:36:00,63.0,58.4,29.79,North,0,0.2,0.9,85,0.00,,,0.00,WUHU216HW,2013-06-30 11:36:00,
2013-06-30 06:37:00,63.0,58.4,29.79,North,0,0.1,0.9,85,0.00,,,0.00,WUHU216HW,2013-06-30 11:37:00,
2013-06-30 06:38:00,63.0,59.1,29.79,North,0,0.0,0.9,87,0.00,,,0.00,WUHU216HW,2013-06-30 11:38:00,
2013-06-30 06:39:00,63.0,58.8,29.79,North,0,0.0,0.9,86,0.00,,,0.00,WUHU216HW,2013-06-30 11:39:00,
2013-06-30 06:40:00,62.8,58.6,29.79,North,0,0.0,0.9,86,0.00,,,0.00,WUHU216HW,2013-06-30 11:40:00,
2013-06-30 06:41:00,63.0,58.8,29.79,North,0,0.0,0.9,86,0.00,,,0.00,WUHU216HW,2013-06-30 11:41:00,
2013-06-30 06:42:00,63.0,58.8,29.79,North,0,0.2,0.7,86,0.00,,,0.00,WUHU216HW,2013-06-30 11:42:00,
2013-06-30 06:43:00,63.0,58.8,29.79,North,0,0.2,0.7,86,0.00,,,0.00,WUHU216HW,2013-06-30 11:43:00,
2013-06-30 06:44:00,63.0,58.8,29.79,NNE,23,0.4,0.4,86,0.00,,,0.00,WUHU216HW,2013-06-30 11:44:00,
2013-06-30 06:45:00,63.0,58.8,29.79,NNE,23,1.6,1.6,86,0.00,,,0.00,WUHU216HW,2013-06-30 11:45:00,
2013-06-30 06:46:00,63.0,58.8,29.79,NNE,18,1.0,1.6,86,0.00,,,0.00,WUHU216HW,2013-06-30 11:46:00,
2013-06-30 06:47:00,62.8,58.6,29.79,North,0,0.3,1.6,86,0.00,,,0.00,WUHU216HW,2013-06-30 11:47:00,
2013-06-30 06:48:00,63.0,58.8,29.79,North,0,0.4,1.6,86,0.00,,,0.00,WUHU216HW,2013-06-30 11:48:00,
2013-06-30 06:49:00,63.0,58.8,29.79,North,0,0.4,1.6,86,0.00,,,0.00,WUHU216HW,2013-06-30 11:49:00,
2013-06-30 06:50:00,63.0,58.4,29.79,North,0,0.7,1.6,85,0.00,,,0.00,WUHU216HW,2013-06-30 11:50:00,
2013-06-30 06:51:00,63.0,58.8,29.79,North,0,1.1,1.6,86,0.00,,,0.00,WUHU216HW,2013-06-30 11:51:00,
2013-06-30 06:52:00,63.0,58.8,29.79,North,0,0.9,1.6,86,0.00,,,0.00,WUHU216HW,2013-06-30 11:52:00,
2013-06-30 06:53:00,63.0,58.8,29.79,North,0,0.6,1.6,86,0.00,,,0.00,WUHU216HW,2013-06-30 11:53:00,
2013-06-30 06:54:00,63.0,58.8,29.79,North,0,1.1,1.6,86,0.00,,,0.00,WUHU216HW,2013-06-30 11:54:00,
2013-06-30 06:55:00,63.0,58.8,29.79,North,0,1.6,1.6,86,0.00,,,0.00,WUHU216HW,2013-06-30 11:55:00,
2013-06-30 07:03:00,63.2,59.3,29.80,SE,135,1.6,1.6,87,0.00,,,0.00,WUHU216HW,2013-06-30 12:03:00,
2013-06-30 07:08:00,63.5,59.7,29.80,NNE,14,1.5,1.8,87,0.00,,,0.00,WUHU216HW,2013-06-30 12:08:00,
2013-06-30 07:13:00,63.7,59.9,29.80,NNW,338,1.8,1.8,87,0.00,,,0.00,WUHU216HW,2013-06-30 12:13:00,
2013-06-30 07:18:00,63.9,60.0,29.80,North,0,1.1,1.8,87,0.00,,,0.00,WUHU216HW,2013-06-30 12:18:00,
2013-06-30 07:23:00,64.1,59.9,29.80,North,0,1.4,2.5,86,0.00,,,0.00,WUHU216HW,2013-06-30 12:23:00,
2013-06-30 07:28:00,64.1,59.9,29.80,North,0,1.6,2.5,86,0.00,,,0.00,WUHU216HW,2013-06-30 12:28:00,
2013-06-30 07:33:00,64.1,59.9,29.80,NNE,23,0.6,2.0,86,0.00,,,0.00,WUHU216HW,2013-06-30 12:33:00,
2013-06-30 07:38:00,64.1,60.2,29.80,North,0,1.8,2.2,87,0.00,,,0.00,WUHU216HW,2013-06-30 12:38:00,
2013-06-30 07:43:00,64.3,60.4,29.80,North,0,0.6,2.2,87,0.00,,,0.00,WUHU216HW,2013-06-30 12:43:00,
2013-06-30 07:48:00,64.3,60.4,29.80,North,0,0.8,2.7,87,0.00,,,0.00,WUHU216HW,2013-06-30 12:48:00,
2013-06-30 07:53:00,64.3,60.0,29.81,North,0,2.5,2.7,86,0.00,,,0.00,WUHU216HW,2013-06-30 12:53:00,
2013-06-30 07:58:00,64.4,60.6,29.80,North,0,1.8,2.5,87,0.00,,,0.00,WUHU216HW,2013-06-30 12:58:00,
2013-06-30 08:03:00,64.4,60.6,29.81,NNW,338,2.5,2.5,87,0.00,,,0.00,WUHU216HW,2013-06-30 13:03:00,
2013-06-30 08:08:00,64.4,60.6,29.81,ESE,113,2.0,2.5,87,0.00,,,0.00,WUHU216HW,2013-06-30 13:08:00,
2013-06-30 08:13:00,64.6,61.0,29.82,North,0,2.2,2.5,88,0.00,,,0.00,WUHU216HW,2013-06-30 13:13:00,
2013-06-30 08:18:00,64.8,60.8,29.81,West,270,0.4,2.2,87,0.00,,,0.00,WUHU216HW,2013-06-30 13:18:00,
2013-06-30 08:23:00,64.8,60.8,29.82,North,0,3.4,3.4,87,0.00,,,0.00,WUHU216HW,2013-06-30 13:23:00,
2013-06-30 08:28:00,64.8,60.8,29.81,North,7,1.5,3.4,87,0.00,,,0.00,WUHU216HW,2013-06-30 13:28:00,
2013-06-30 08:33:00,65.0,60.7,29.81,NNE,26,1.5,2.9,86,0.00,,,0.00,WUHU216HW,2013-06-30 13:33:00,
2013-06-30 08:38:00,65.2,61.2,29.82,ENE,68,1.8,2.0,87,0.00,,,0.00,WUHU216HW,2013-06-30 13:38:00,
2013-06-30 08:43:00,65.2,60.8,29.81,North,0,2.5,2.7,86,0.00,,,0.00,WUHU216HW,2013-06-30 13:43:00,
2013-06-30 08:48:00,65.2,61.2,29.81,North,0,1.7,2.9,87,0.00,,,0.00,WUHU216HW,2013-06-30 13:48:00,
2013-06-30 08:53:00,65.3,61.4,29.81,NNW,338,0.6,2.9,87,0.00,,,0.00,WUHU216HW,2013-06-30 13:53:00,
2013-06-30 08:58:00,65.5,61.6,29.82,NE,45,1.8,1.8,87,0.00,,,0.00,WUHU216HW,2013-06-30 13:58:00,
2013-06-30 09:03:00,65.5,61.2,29.82,NNE,23,0.9,1.8,86,0.00,,,0.00,WUHU216HW,2013-06-30 14:03:00,
2013-06-30 09:08:00,65.9,61.6,29.81,SW,222,1.8,3.1,86,0.00,,,0.00,WUHU216HW,2013-06-30 14:08:00,
2013-06-30 09:13:00,66.4,62.4,29.82,NNE,23,1.1,3.1,87,0.00,,,0.00,WUHU216HW,2013-06-30 14:13:00,
2013-06-30 09:18:00,66.8,62.1,29.82,North,0,1.1,4.0,85,0.00,,,0.00,WUHU216HW,2013-06-30 14:18:00,
2013-06-30 09:23:00,67.0,62.3,29.82,North,358,2.3,4.0,85,0.00,,,0.00,WUHU216HW,2013-06-30 14:23:00,
2013-06-30 09:28:00,67.1,62.1,29.82,NW,315,1.8,2.5,84,0.00,,,0.00,WUHU216HW,2013-06-30 14:28:00,
2013-06-30 09:33:00,67.5,62.5,29.82,NNW,336,1.9,3.6,84,0.00,,,0.00,WUHU216HW,2013-06-30 14:33:00,
2013-06-30 09:38:00,67.7,62.0,29.83,North,352,3.9,5.1,82,0.00,,,0.00,WUHU216HW,2013-06-30 14:38:00,
2013-06-30 09:43:00,67.9,62.2,29.83,ENE,68,1.8,5.1,82,0.00,,,0.00,WUHU216HW,2013-06-30 14:43:00,
2013-06-30 09:48:00,68.0,62.4,29.83,NNE,12,2.0,4.0,82,0.00,,,0.00,WUHU216HW,2013-06-30 14:48:00,
2013-06-30 09:53:00,67.9,61.9,29.83,North,0,2.2,2.2,81,0.00,,,0.00,WUHU216HW,2013-06-30 14:53:00,
2013-06-30 09:58:00,67.7,61.8,29.83,North,0,3.8,4.9,81,0.00,,,0.00,WUHU216HW,2013-06-30 14:58:00,
2013-06-30 10:03:00,68.0,62.4,29.83,North,0,0.4,4.9,82,0.00,,,0.00,WUHU216HW,2013-06-30 15:03:00,
2013-06-30 10:08:00,68.2,61.9,29.83,NNW,338,1.8,5.4,80,0.00,,,0.00,WUHU216HW,2013-06-30 15:08:00,
2013-06-30 10:13:00,68.4,62.1,29.83,NNW,338,0.7,5.4,80,0.00,,,0.00,WUHU216HW,2013-06-30 15:13:00,
2013-06-30 10:18:00,68.6,62.6,29.83,ENE,57,2.7,4.3,81,0.00,,,0.00,WUHU216HW,2013-06-30 15:18:00,
2013-06-30 10:23:00,69.5,63.4,29.82,ENE,75,1.9,4.3,81,0.00,,,0.00,WUHU216HW,2013-06-30 15:23:00,
2013-06-30 10:28:00,70.4,62.7,29.83,North,6,1.8,4.7,77,0.00,,,0.00,WUHU216HW,2013-06-30 15:28:00,
2013-06-30 10:33:00,70.9,63.3,29.83,North,0,1.8,4.7,77,0.00,,,0.00,WUHU216HW,2013-06-30 15:33:00,
2013-06-30 10:38:00,70.7,63.1,29.82,NNE,14,1.6,4.0,77,0.00,,,0.00,WUHU216HW,2013-06-30 15:38:00,
2013-06-30 10:43:00,70.9,62.9,29.82,NE,45,4.0,4.0,76,0.00,,,0.00,WUHU216HW,2013-06-30 15:43:00,
2013-06-30 10:48:00,71.6,62.9,29.83,North,349,2.1,4.7,74,0.00,,,0.00,WUHU216HW,2013-06-30 15:48:00,
2013-06-30 10:53:00,72.2,63.5,29.83,SW,225,3.4,4.7,74,0.00,,,0.00,WUHU216HW,2013-06-30 15:53:00,
2013-06-30 10:58:00,72.0,62.9,29.83,NNE,23,3.4,4.3,73,0.00,,,0.00,WUHU216HW,2013-06-30 15:58:00,
2013-06-30 11:03:00,71.8,63.1,29.83,North,0,2.9,4.7,74,0.00,,,0.00,WUHU216HW,2013-06-30 16:03:00,
2013-06-30 11:08:00,71.8,63.1,29.83,WNW,293,4.3,4.7,74,0.00,,,0.00,WUHU216HW,2013-06-30 16:08:00,
2013-06-30 11:13:00,72.2,63.1,29.83,West,270,2.0,4.3,73,0.00,,,0.00,WUHU216HW,2013-06-30 16:13:00,
2013-06-30 11:18:00,72.2,63.1,29.83,North,0,1.3,3.4,73,0.00,,,0.00,WUHU216HW,2013-06-30 16:18:00,
2013-06-30 11:23:00,72.2,62.6,29.83,North,10,3.3,4.7,72,0.00,,,0.00,WUHU216HW,2013-06-30 16:23:00,
2013-06-30 11:28:00,72.4,62.8,29.83,NW,315,2.2,4.7,72,0.00,,,0.00,WUHU216HW,2013-06-30 16:28:00,
2013-06-30 11:33:00,73.1,62.8,29.83,North,0,4.7,4.7,70,0.00,,,0.00,WUHU216HW,2013-06-30 16:33:00,
2013-06-30 11:38:00,73.1,63.2,29.83,North,0,2.5,4.7,71,0.00,,,0.00,WUHU216HW,2013-06-30 16:38:00,
2013-06-30 11:43:00,73.6,63.7,29.83,NNE,23,3.4,3.8,71,0.00,,,0.00,WUHU216HW,2013-06-30 16:43:00,
2013-06-30 11:48:00,73.8,61.8,29.83,East,80,2.3,3.8,66,0.00,,,0.00,WUHU216HW,2013-06-30 16:48:00,
2013-06-30 11:53:00,73.6,62.9,29.83,North,0,1.8,3.4,69,0.00,,,0.00,WUHU216HW,2013-06-30 16:53:00,
2013-06-30 11:58:00,73.4,62.7,29.83,North,0,0.6,2.5,69,0.00,,,0.00,WUHU216HW,2013-06-30 16:58:00,
2013-06-30 12:03:00,74.2,62.9,29.83,SW,231,2.5,2.7,68,0.00,,,0.00,WUHU216HW,2013-06-30 17:03:00,
2013-06-30 12:08:00,73.8,62.7,29.83,WNW,286,2.5,4.0,68,0.00,,,0.00,WUHU216HW,2013-06-30 17:08:00,
2013-06-30 12:13:00,74.2,62.9,29.83,North,0,1.3,4.0,68,0.00,,,0.00,WUHU216HW,2013-06-30 17:13:00,
2013-06-30 12:18:00,74.5,62.8,29.83,North,0,2.2,3.6,67,0.00,,,0.00,WUHU216HW,2013-06-30 17:18:00,
2013-06-30 12:23:00,74.9,63.6,29.83,NE,45,2.7,3.6,68,0.00,,,0.00,WUHU216HW,2013-06-30 17:23:00,
2013-06-30 12:28:00,75.1,62.9,29.83,NW,315,2.7,2.7,66,0.00,,,0.00,WUHU216HW,2013-06-30 17:28:00,
2013-06-30 12:33:00,74.7,62.1,29.83,WNW,293,3.4,3.4,65,0.00,,,0.00,WUHU216HW,2013-06-30 17:33:00,
2013-06-30 12:38:00,74.3,61.8,29.83,NNW,329,4.0,5.4,65,0.00,,,0.00,WUHU216HW,2013-06-30 17:38:00,
2013-06-30 12:43:00,74.0,61.5,29.83,WNW,293,1.2,5.4,65,0.00,,,0.00,WUHU216HW,2013-06-30 17:43:00,
2013-06-30 12:48:00,74.2,62.5,29.83,North,0,1.8,2.7,67,0.00,,,0.00,WUHU216HW,2013-06-30 17:48:00,
2013-06-30 12:53:00,74.9,62.3,29.83,North,9,3.3,4.0,65,0.00,,,0.00,WUHU216HW,2013-06-30 17:53:00,
2013-06-30 12:58:00,74.9,61.8,29.83,North,0,2.5,4.0,64,0.00,,,0.00,WUHU216HW,2013-06-30 17:58:00,
2013-06-30 13:03:00,74.9,61.0,29.83,North,10,2.7,3.1,62,0.00,,,0.00,WUHU216HW,2013-06-30 18:03:00,
2013-06-30 13:08:00,75.2,62.6,29.82,ENE,68,2.7,3.1,65,0.00,,,0.00,WUHU216HW,2013-06-30 18:08:00,
2013-06-30 13:13:00,75.6,62.1,29.82,NNW,333,3.3,4.0,63,0.00,,,0.00,WUHU216HW,2013-06-30 18:13:00,
2013-06-30 13:18:00,76.0,62.0,29.82,NNW,338,3.4,4.0,62,0.00,,,0.00,WUHU216HW,2013-06-30 18:18:00,
2013-06-30 13:23:00,76.1,61.8,29.82,NE,51,1.5,4.7,61,0.00,,,0.00,WUHU216HW,2013-06-30 18:23:00,
2013-06-30 13:28:00,76.1,61.8,29.82,SSE,158,2.3,4.7,61,0.00,,,0.00,WUHU216HW,2013-06-30 18:28:00,
2013-06-30 13:33:00,76.0,61.1,29.82,NNW,342,2.5,4.7,60,0.00,,,0.00,WUHU216HW,2013-06-30 18:33:00,
2013-06-30 13:38:00,75.8,61.8,29.82,NNW,344,1.8,4.7,62,0.00,,,0.00,WUHU216HW,2013-06-30 18:38:00,
2013-06-30 13:43:00,75.6,62.1,29.81,SW,225,1.1,4.7,63,0.00,,,0.00,WUHU216HW,2013-06-30 18:43:00,
2013-06-30 13:48:00,75.8,62.7,29.81,NNW,344,3.6,4.9,64,0.00,,,0.00,WUHU216HW,2013-06-30 18:48:00,
2013-06-30 13:53:00,76.0,62.5,29.81,NNE,23,2.7,4.9,63,0.00,,,0.00,WUHU216HW,2013-06-30 18:53:00,
2013-06-30 13:58:00,76.3,62.8,29.81,NNE,23,1.7,3.8,63,0.00,,,0.00,WUHU216HW,2013-06-30 18:58:00,
2013-06-30 14:03:00,76.5,62.9,29.81,NNW,338,2.0,3.4,63,0.00,,,0.00,WUHU216HW,2013-06-30 19:03:00,
2013-06-30 14:08:00,76.7,63.1,29.82,ENE,68,1.8,3.4,63,0.00,,,0.00,WUHU216HW,2013-06-30 19:08:00,
2013-06-30 14:13:00,76.9,63.3,29.82,NNW,332,1.9,3.4,63,0.00,,,0.00,WUHU216HW,2013-06-30 19:13:00,
2013-06-30 14:18:00,76.9,62.8,29.82,North,355,2.5,4.5,62,0.00,,,0.00,WUHU216HW,2013-06-30 19:18:00,
2013-06-30 14:23:00,76.3,62.4,29.82,NNW,338,1.8,4.5,62,0.00,,,0.00,WUHU216HW,2013-06-30 19:23:00,
2013-06-30 14:28:00,75.8,62.3,29.82,West,270,0.8,4.5,63,0.00,,,0.00,WUHU216HW,2013-06-30 19:28:00,
2013-06-30 14:33:00,75.2,61.7,29.82,North,0,1.8,4.5,63,0.00,,,0.00,WUHU216HW,2013-06-30 19:33:00,
2013-06-30 14:38:00,74.7,61.7,29.82,North,0,1.1,2.5,64,0.00,,,0.00,WUHU216HW,2013-06-30 19:38:00,
2013-06-30 14:43:00,74.5,61.6,29.82,North,0,0.6,3.4,64,0.00,,,0.00,WUHU216HW,2013-06-30 19:43:00,
2013-06-30 14:48:00,74.9,62.7,29.82,NW,304,0.8,3.4,66,0.00,,,0.00,WUHU216HW,2013-06-30 19:48:00,
2013-06-30 14:53:00,75.2,62.6,29.82,North,0,2.5,2.5,65,0.00,,,0.00,WUHU216HW,2013-06-30 19:53:00,
2013-06-30 14:58:00,75.1,62.0,29.83,North,0,1.8,4.5,64,0.00,,,0.00,WUHU216HW,2013-06-30 19:58:00,
2013-06-30 15:03:00,74.9,62.3,29.83,North,0,2.0,4.5,65,0.00,,,0.00,WUHU216HW,2013-06-30 20:03:00,
2013-06-30 15:08:00,74.9,61.5,29.83,North,0,2.2,4.3,63,0.00,,,0.00,WUHU216HW,2013-06-30 20:08:00,
2013-06-30 15:13:00,74.9,61.5,29.83,NNE,13,2.2,4.3,63,0.00,,,0.00,WUHU216HW,2013-06-30 20:13:00,
2013-06-30 15:18:00,74.9,61.8,29.83,North,0,1.8,3.1,64,0.00,,,0.00,WUHU216HW,2013-06-30 20:18:00,
2013-06-30 15:23:00,74.9,61.8,29.82,North,5,1.7,2.7,64,0.00,,,0.00,WUHU216HW,2013-06-30 20:23:00,
2013-06-30 15:28:00,74.9,62.3,29.82,North,0,3.8,3.8,65,0.00,,,0.00,WUHU216HW,2013-06-30 20:28:00,
2013-06-30 15:33:00,74.7,62.1,29.82,NNE,23,1.1,4.0,65,0.00,,,0.00,WUHU216HW,2013-06-30 20:33:00,
2013-06-30 15:38:00,74.5,61.9,29.83,NNE,16,1.5,4.0,65,0.00,,,0.00,WUHU216HW,2013-06-30 20:38:00,
2013-06-30 15:43:00,74.5,61.9,29.83,WNW,293,3.4,3.8,65,0.00,,,0.00,WUHU216HW,2013-06-30 20:43:00,
2013-06-30 15:48:00,74.3,62.2,29.83,NNW,338,1.1,3.8,66,0.00,,,0.00,WUHU216HW,2013-06-30 20:48:00,
2013-06-30 15:53:00,74.2,62.5,29.83,NW,315,1.1,3.6,67,0.00,,,0.00,WUHU216HW,2013-06-30 20:53:00,
2013-06-30 15:58:00,74.0,61.9,29.83,North,0,3.8,3.8,66,0.00,,,0.00,WUHU216HW,2013-06-30 20:58:00,
2013-06-30 16:03:00,73.8,62.2,29.83,North,0,1.6,4.3,67,0.00,,,0.00,WUHU216HW,2013-06-30 21:03:00,
2013-06-30 16:08:00,73.3,61.7,29.83,North,0,2.5,4.5,67,0.00,,,0.00,WUHU216HW,2013-06-30 21:08:00,
2013-06-30 16:13:00,73.1,61.9,29.83,ENE,59,1.5,4.5,68,0.00,,,0.00,WUHU216HW,2013-06-30 21:13:00,
2013-06-30 16:18:00,73.3,62.1,29.83,North,0,1.8,3.1,68,0.00,,,0.00,WUHU216HW,2013-06-30 21:18:00,
2013-06-30 16:23:00,73.4,62.3,29.83,North,0,1.3,2.9,68,0.00,,,0.00,WUHU216HW,2013-06-30 21:23:00,
2013-06-30 16:29:00,74.2,62.5,29.82,NE,45,3.4,3.4,67,0.00,,,0.00,WUHU216HW,2013-06-30 21:29:00,
2013-06-30 16:34:00,74.2,62.5,29.82,NNW,338,3.8,3.8,67,0.00,,,0.00,WUHU216HW,2013-06-30 21:34:00,
2013-06-30 16:39:00,74.2,62.9,29.82,North,0,2.5,3.8,68,0.00,,,0.00,WUHU216HW,2013-06-30 21:39:00,
2013-06-30 16:44:00,74.2,62.5,29.82,NNE,23,1.8,3.1,67,0.00,,,0.00,WUHU216HW,2013-06-30 21:44:00,
2013-06-30 16:49:00,74.2,62.5,29.82,North,0,1.3,3.4,67,0.00,,,0.00,WUHU216HW,2013-06-30 21:49:00,
2013-06-30 16:54:00,74.0,62.4,29.82,North,0,1.6,3.4,67,0.00,,,0.00,WUHU216HW,2013-06-30 21:54:00,
2013-06-30 16:59:00,74.2,62.9,29.82,NNW,338,3.1,3.1,68,0.00,,,0.00,WUHU216HW,2013-06-30 21:59:00,
2013-06-30 17:04:00,74.2,62.5,29.82,NE,43,2.1,3.6,67,0.00,,,0.00,WUHU216HW,2013-06-30 22:04:00,
2013-06-30 17:09:00,74.0,62.8,29.82,NNW,338,1.8,3.6,68,0.00,,,0.00,WUHU216HW,2013-06-30 22:09:00,
2013-06-30 17:14:00,74.2,63.4,29.82,WNW,293,1.8,2.0,69,0.00,,,0.00,WUHU216HW,2013-06-30 22:14:00,
2013-06-30 17:19:00,74.2,62.5,29.82,North,0,1.3,2.5,67,0.00,,,0.00,WUHU216HW,2013-06-30 22:19:00,
2013-06-30 17:24:00,74.2,62.9,29.82,NNE,23,1.1,2.5,68,0.00,,,0.00,WUHU216HW,2013-06-30 22:24:00,
2013-06-30 17:28:00,74.2,63.4,29.83,NNE,23,3.1,3.1,69,0.00,,,0.00,WUHU216HW,2013-06-30 22:28:00,
2013-06-30 17:33:00,74.2,63.4,29.82,ENE,68,1.1,3.1,69,0.00,,,0.00,WUHU216HW,2013-06-30 22:33:00,
2013-06-30 17:38:00,74.0,63.2,29.83,North,0,1.8,1.8,69,0.00,,,0.00,WUHU216HW,2013-06-30 22:38:00,
2013-06-30 17:43:00,73.8,63.1,29.82,North,0,2.7,4.0,69,0.00,,,0.00,WUHU216HW,2013-06-30 22:43:00,
2013-06-30 17:48:00,73.8,63.6,29.82,NE,45,1.1,4.0,70,0.00,,,0.00,WUHU216HW,2013-06-30 22:48:00,
2013-06-30 17:53:00,73.8,63.6,29.82,North,0,1.1,2.2,70,0.00,,,0.00,WUHU216HW,2013-06-30 22:53:00,
2013-06-30 17:58:00,74.0,63.6,29.82,NNW,346,1.3,2.2,70,0.00,,,0.00,WUHU216HW,2013-06-30 22:58:00,
2013-06-30 18:03:00,74.2,63.4,29.82,NNE,25,2.3,2.5,69,0.00,,,0.00,WUHU216HW,2013-06-30 23:03:00,
2013-06-30 18:08:00,74.5,63.3,29.82,NNW,338,0.9,3.1,68,0.00,,,0.00,WUHU216HW,2013-06-30 23:08:00,
2013-06-30 18:13:00,74.3,63.5,29.82,North,0,1.0,3.1,69,0.00,,,0.00,WUHU216HW,2013-06-30 23:13:00,
2013-06-30 18:18:00,73.8,63.1,29.82,NNW,338,1.1,1.8,69,0.00,,,0.00,WUHU216HW,2013-06-30 23:18:00,
2013-06-30 18:23:00,73.6,63.4,29.82,NNE,12,1.2,1.8,70,0.00,,,0.00,WUHU216HW,2013-06-30 23:23:00,
2013-06-30 18:28:00,73.4,62.7,29.82,NNW,348,1.8,2.7,69,0.00,,,0.00,WUHU216HW,2013-06-30 23:28:00,
2013-06-30 18:33:00,73.4,63.2,29.82,NE,45,0.4,2.7,70,0.00,,,0.00,WUHU216HW,2013-06-30 23:33:00,
2013-06-30 18:38:00,73.8,63.6,29.82,NNW,332,1.5,2.7,70,0.00,,,0.00,WUHU216HW,2013-06-30 23:38:00,
2013-06-30 18:43:00,74.0,62.8,29.82,North,2,2.3,2.9,68,0.00,,,0.00,WUHU216HW,2013-06-30 23:43:00,
2013-06-30 18:48:00,73.8,62.7,29.82,NNE,23,3.4,3.4,68,0.00,,,0.00,WUHU216HW,2013-06-30 23:48:00,
2013-06-30 18:53:00,73.4,62.3,29.82,NNW,348,1.8,3.4,68,0.00,,,0.00,WUHU216HW,2013-06-30 23:53:00,
2013-06-30 18:58:00,73.1,61.9,29.82,North,0,3.0,3.4,68,0.00,,,0.00,WUHU216HW,2013-06-30 23:58:00,
2013-06-30 19:04:00,72.7,61.6,29.82,North,0,3.4,3.4,68,0.00,,,0.00,WUHU216HW,2013-07-01 00:04:00,
2013-06-30 19:09:00,72.5,60.9,29.83,NNE,12,1.9,3.4,67,0.00,,,0.00,WUHU216HW,2013-07-01 00:09:00,
2013-06-30 19:14:00,72.5,61.4,29.83,North,0,1.1,2.9,68,0.00,,,0.00,WUHU216HW,2013-07-01 00:14:00,
2013-06-30 19:21:00,72.4,61.2,29.83,North,0,1.9,3.1,68,0.00,,,0.00,WUHU216HW,2013-07-01 00:21:00,
2013-06-30 19:26:00,72.2,61.0,29.83,North,0,1.1,3.4,68,0.00,,,0.00,WUHU216HW,2013-07-01 00:26:00,
2013-06-30 19:31:00,72.2,61.0,29.83,North,6,1.5,3.4,68,0.00,,,0.00,WUHU216HW,2013-07-01 00:31:00,
2013-06-30 19:36:00,72.2,61.0,29.83,North,0,1.1,3.1,68,0.00,,,0.00,WUHU216HW,2013-07-01 00:36:00,
2013-06-30 19:42:00,72.2,61.5,29.83,NNE,14,0.9,1.8,69,0.00,,,0.00,WUHU216HW,2013-07-01 00:42:00,
2013-06-30 19:47:00,72.2,61.0,29.83,North,0,3.1,3.1,68,0.00,,,0.00,WUHU216HW,2013-07-01 00:47:00,
2013-06-30 19:52:00,72.0,61.3,29.83,North,0,2.5,3.1,69,0.00,,,0.00,WUHU216HW,2013-07-01 00:52:00,
2013-06-30 19:57:00,71.6,60.9,29.83,North,351,2.7,3.1,69,0.00,,,0.00,WUHU216HW,2013-07-01 00:57:00,
2013-06-30 20:02:00,71.6,60.5,29.83,NNE,23,1.1,3.1,68,0.00,,,0.00,WUHU216HW,2013-07-01 01:02:00,
2013-06-30 20:07:00,71.5,60.3,29.83,North,0,2.0,2.0,68,0.00,,,0.00,WUHU216HW,2013-07-01 01:07:00,
2013-06-30 20:12:00,71.3,60.6,29.83,North,350,1.5,2.5,69,0.00,,,0.00,WUHU216HW,2013-07-01 01:12:00,
2013-06-30 20:17:00,71.3,60.6,29.83,North,0,1.1,2.5,69,0.00,,,0.00,WUHU216HW,2013-07-01 01:17:00,
2013-06-30 20:22:00,71.1,60.4,29.84,NNE,23,3.1,3.1,69,0.00,,,0.00,WUHU216HW,2013-07-01 01:22:00,
2013-06-30 20:27:00,70.9,60.2,29.84,NE,49,3.2,3.4,69,0.00,,,0.00,WUHU216HW,2013-07-01 01:27:00,
2013-06-30 20:32:00,70.6,60.3,29.84,NNW,329,2.3,3.4,70,0.00,,,0.00,WUHU216HW,2013-07-01 01:32:00,
2013-06-30 20:37:00,70.4,60.1,29.84,North,0,2.5,2.5,70,0.00,,,0.00,WUHU216HW,2013-07-01 01:37:00,
2013-06-30 20:42:00,70.2,59.9,29.85,NNW,338,2.5,4.3,70,0.00,,,0.00,WUHU216HW,2013-07-01 01:42:00,
2013-06-30 20:47:00,69.8,59.6,29.85,NE,45,3.1,4.3,70,0.00,,,0.00,WUHU216HW,2013-07-01 01:47:00,
2013-06-30 20:52:00,69.8,59.6,29.85,North,0,1.0,4.0,70,0.00,,,0.00,WUHU216HW,2013-07-01 01:52:00,
2013-06-30 20:57:00,69.5,59.2,29.85,NNW,338,4.0,4.0,70,0.00,,,0.00,WUHU216HW,2013-07-01 01:57:00,
2013-06-30 21:02:00,69.5,59.2,29.85,North,0,2.9,4.0,70,0.00,,,0.00,WUHU216HW,2013-07-01 02:02:00,
2013-06-30 21:07:00,69.3,59.1,29.86,North,0,1.1,3.4,70,0.00,,,0.00,WUHU216HW,2013-07-01 02:07:00,
2013-06-30 21:12:00,69.1,59.0,29.86,NNW,346,0.9,3.4,70,0.00,,,0.00,WUHU216HW,2013-07-01 02:12:00,
2013-06-30 21:17:00,69.1,59.0,29.86,North,0,0.3,2.2,70,0.00,,,0.00,WUHU216HW,2013-07-01 02:17:00,
2013-06-30 21:22:00,68.9,59.1,29.86,NNW,341,1.5,4.7,71,0.00,,,0.00,WUHU216HW,2013-07-01 02:22:00,
2013-06-30 21:27:00,68.8,59.0,29.86,NNE,23,0.8,4.7,71,0.00,,,0.00,WUHU216HW,2013-07-01 02:27:00,
2013-06-30 21:32:00,68.8,59.0,29.86,NNE,23,2.0,2.0,71,0.00,,,0.00,WUHU216HW,2013-07-01 02:32:00,
2013-06-30 21:37:00,68.8,59.0,29.86,NNE,23,0.4,2.7,71,0.00,,,0.00,WUHU216HW,2013-07-01 02:37:00,
2013-06-30 21:42:00,68.6,58.9,29.86,North,0,0.9,2.7,71,0.00,,,0.00,WUHU216HW,2013-07-01 02:42:00,
2013-06-30 21:47:00,68.4,58.7,29.86,North,0,1.1,1.8,71,0.00,,,0.00,WUHU216HW,2013-07-01 02:47:00,
2013-06-30 21:52:00,68.4,59.0,29.87,NNW,339,1.2,1.8,72,0.00,,,0.00,WUHU216HW,2013-07-01 02:52:00,
2013-06-30 21:57:00,68.2,58.9,29.87,North,0,0.9,1.3,72,0.00,,,0.00,WUHU216HW,2013-07-01 02:57:00,
2013-06-30 22:02:00,68.2,59.2,29.87,North,0,2.5,2.5,73,0.00,,,0.00,WUHU216HW,2013-07-01 03:02:00,
2013-06-30 22:07:00,68.0,58.7,29.87,North,8,0.6,2.5,72,0.00,,,0.00,WUHU216HW,2013-07-01 03:07:00,
2013-06-30 22:12:00,68.0,59.1,29.87,NNE,23,1.1,1.8,73,0.00,,,0.00,WUHU216HW,2013-07-01 03:12:00,
2013-06-30 22:17:00,67.9,59.0,29.88,North,0,0.3,1.8,73,0.00,,,0.00,WUHU216HW,2013-07-01 03:17:00,
2013-06-30 22:22:00,67.9,59.0,29.87,NNE,23,1.1,1.1,73,0.00,,,0.00,WUHU216HW,2013-07-01 03:22:00,
2013-06-30 22:27:00,67.9,59.3,29.88,North,0,0.8,1.1,74,0.00,,,0.00,WUHU216HW,2013-07-01 03:27:00,
2013-06-30 22:32:00,67.7,59.1,29.88,NNW,338,0.4,0.9,74,0.00,,,0.00,WUHU216HW,2013-07-01 03:32:00,
2013-06-30 22:37:00,67.7,59.1,29.88,NNW,338,0.4,0.7,74,0.00,,,0.00,WUHU216HW,2013-07-01 03:37:00,
2013-06-30 22:42:00,67.5,59.0,29.88,NNW,338,0.2,0.7,74,0.00,,,0.00,WUHU216HW,2013-07-01 03:42:00,
2013-06-30 22:47:00,67.3,58.8,29.88,NNW,338,0.0,0.4,74,0.00,,,0.00,WUHU216HW,2013-07-01 03:47:00,
2013-06-30 22:52:00,67.1,59.0,29.88,NNE,23,0.0,1.6,75,0.00,,,0.00,WUHU216HW,2013-07-01 03:52:00,
2013-06-30 22:57:00,67.0,58.8,29.88,NNE,23,0.2,1.6,75,0.00,,,0.00,WUHU216HW,2013-07-01 03:57:00,
2013-06-30 23:01:00,67.0,58.8,29.88,NNE,23,1.1,1.1,75,0.00,,,0.00,WUHU216HW,2013-07-01 04:01:00,
2013-06-30 23:06:00,66.8,59.0,29.88,NNE,23,0.0,1.1,76,0.00,,,0.00,WUHU216HW,2013-07-01 04:06:00,
2013-06-30 23:11:00,66.6,58.8,29.88,NNE,23,0.0,0.4,76,0.00,,,0.00,WUHU216HW,2013-07-01 04:11:00,
2013-06-30 23:16:00,66.4,58.6,29.88,NNE,23,0.0,0.0,76,0.00,,,0.00,WUHU216HW,2013-07-01 04:16:00,
2013-06-30 23:21:00,66.4,58.6,29.88,NNE,23,0.0,0.0,76,0.00,,,0.00,WUHU216HW,2013-07-01 04:21:00,
2013-06-30 23:26:00,66.2,58.4,29.88,NNE,23,0.0,0.0,76,0.00,,,0.00,WUHU216HW,2013-07-01 04:26:00,
2013-06-30 23:31:00,65.9,58.5,29.88,NNE,23,0.0,0.0,77,0.00,,,0.00,WUHU216HW,2013-07-01 04:31:00,
2013-06-30 23:36:00,65.9,58.5,29.88,NNE,23,0.0,0.0,77,0.00,,,0.00,WUHU216HW,2013-07-01 04:36:00,
2013-06-30 23:41:00,65.7,58.3,29.88,NNE,23,0.0,0.0,77,0.00,,,0.00,WUHU216HW,2013-07-01 04:41:00,
2013-06-30 23:46:00,65.5,58.5,29.88,NNE,23,0.0,0.0,78,0.00,,,0.00,WUHU216HW,2013-07-01 04:46:00,
2013-06-30 23:51:00,65.5,58.5,29.88,North,0,0.0,0.0,78,0.00,,,0.00,WUHU216HW,2013-07-01 04:51:00,
2013-06-30 23:56:00,65.5,58.5,29.88,North,0,0.0,0.0,78,0.00,,,0.00,WUHU216HW,2013-07-01 04:56:00,